When you browse on this site, cookies collect data to enhance your experience and personalize the content and advertising you see.
Visit our Privacy Policy to learn more. By continuing to use the site, you agree to this use of cookies and data.
  • In Hungary
  • List of Countries
  • For 7 days
  • Water Temperature
  • Weather Map
  • News
  • Weather Widgets
  • user-avatar
    Login

    Hourly Weather Sosnovka

    Today, 20 October, Sunday

    Time Temperature Precipitation Wind Pressure Humidity
    00:00 -2°C° 0 mm 3 mps 765 mmHg 77%
    01:00 -2°C° 0 mm 3 mps 765 mmHg 77%
    02:00 -2°C° 0 mm 2 mps 765 mmHg 77%
    03:00 -2°C° 0 mm 2 mps 765 mmHg 77%
    04:00 -2°C° 0 mm 2 mps 765 mmHg 80%
    05:00 -2°C° 0 mm 2 mps 765 mmHg 79%
    06:00 -2°C° 0 mm 3 mps 765 mmHg 78%
    07:00 -2°C° 0 mm 3 mps 765 mmHg 77%
    08:00 -1°C° 0 mm 3 mps 766 mmHg 73%
    09:00 -1°C° 0 mm 4 mps 766 mmHg 69%
    10:00 0°C° 0 mm 4 mps 766 mmHg 65%
    11:00 +1°C° 0 mm 4 mps 765 mmHg 64%
    12:00 +1°C° 0 mm 5 mps 765 mmHg 63%
    13:00 +2°C° 0 mm 5 mps 765 mmHg 63%
    14:00 +2°C° 0 mm 5 mps 765 mmHg 66%
    15:00 +1°C° 0 mm 4 mps 765 mmHg 69%
    16:00 +1°C° 0 mm 4 mps 765 mmHg 72%
    17:00 0°C° 0 mm 4 mps 765 mmHg 74%
    18:00 0°C° 0 mm 4 mps 765 mmHg 75%
    19:00 0°C° 0 mm 5 mps 765 mmHg 76%
    20:00 -1°C° 0 mm 5 mps 765 mmHg 78%
    21:00 -1°C° 0 mm 5 mps 764 mmHg 79%
    22:00 -1°C° 0 mm 5 mps 764 mmHg 80%
    23:00 -1°C° 0 mm 5 mps 764 mmHg 79%

    Tomorrow, 21 October, Monday

    Time Temperature Precipitation Wind Pressure Humidity
    00:00 -1°C° 0 mm 5 mps 764 mmHg 78%
    01:00 -1°C° 0 mm 5 mps 764 mmHg 77%
    02:00 -2°C° 0 mm 6 mps 764 mmHg 76%
    03:00 -1°C° 0 mm 6 mps 764 mmHg 75%
    04:00 -1°C° 0 mm 6 mps 763 mmHg 74%
    05:00 -1°C° 0.4 mm 6 mps 763 mmHg 78%
    06:00 -1°C° 0.4 mm 6 mps 763 mmHg 81%
    07:00 -1°C° 0.4 mm 7 mps 762 mmHg 84%
    08:00 -1°C° 0.1 mm 7 mps 762 mmHg 85%
    09:00 -1°C° 0.1 mm 7 mps 762 mmHg 86%
    10:00 0°C° 0.1 mm 7 mps 762 mmHg 87%
    11:00 +1°C° 0.2 mm 6 mps 762 mmHg 89%
    12:00 +1°C° 0.2 mm 6 mps 761 mmHg 90%
    13:00 +1°C° 0.2 mm 6 mps 761 mmHg 92%
    14:00 +1°C° 0.5 mm 6 mps 761 mmHg 92%
    15:00 +2°C° 0.5 mm 6 mps 761 mmHg 93%
    16:00 +2°C° 0.5 mm 6 mps 760 mmHg 93%
    17:00 +2°C° 0.1 mm 6 mps 760 mmHg 91%
    18:00 +2°C° 0.1 mm 6 mps 760 mmHg 90%
    19:00 +3°C° 0.1 mm 6 mps 759 mmHg 88%
    20:00 +3°C° 0 mm 6 mps 759 mmHg 87%
    21:00 +3°C° 0 mm 7 mps 758 mmHg 86%
    22:00 +3°C° 0 mm 7 mps 757 mmHg 85%
    23:00 +4°C° 0 mm 7 mps 757 mmHg 84%

    Day after tomorrow, 22 October, Tuesday

    Time Temperature Precipitation Wind Pressure Humidity
    00:00 +4°C° 0 mm 7 mps 756 mmHg 83%
    01:00 +4°C° 0 mm 8 mps 755 mmHg 82%
    02:00 +5°C° 0.2 mm 8 mps 754 mmHg 83%
    03:00 +5°C° 0.2 mm 8 mps 754 mmHg 83%
    04:00 +5°C° 0.2 mm 8 mps 753 mmHg 84%
    05:00 +5°C° 1.7 mm 8 mps 753 mmHg 87%
    06:00 +5°C° 1.7 mm 8 mps 752 mmHg 89%
    07:00 +5°C° 1.7 mm 8 mps 752 mmHg 92%
    08:00 +6°C° 0.5 mm 7 mps 752 mmHg 92%
    09:00 +7°C° 0.5 mm 6 mps 752 mmHg 93%
    10:00 +8°C° 0.5 mm 5 mps 753 mmHg 93%
    11:00 +8°C° 0 mm 5 mps 753 mmHg 86%
    12:00 +8°C° 0 mm 5 mps 753 mmHg 80%
    13:00 +8°C° 0 mm 6 mps 753 mmHg 73%
    14:00 +7°C° 0 mm 5 mps 754 mmHg 72%
    15:00 +6°C° 0 mm 5 mps 754 mmHg 72%
    16:00 +6°C° 0 mm 4 mps 754 mmHg 71%
    17:00 +5°C° 0 mm 4 mps 755 mmHg 72%
    18:00 +5°C° 0 mm 4 mps 755 mmHg 73%
    19:00 +5°C° 0 mm 4 mps 756 mmHg 74%
    20:00 +4°C° 0 mm 4 mps 756 mmHg 74%
    21:00 +4°C° 0 mm 3 mps 756 mmHg 75%
    22:00 +3°C° 0 mm 3 mps 757 mmHg 75%
    23:00 +2°C° 0 mm 3 mps 757 mmHg 77%

    23 October, Wednesday

    Time Temperature Precipitation Wind Pressure Humidity
    00:00 +1°C° 0 mm 3 mps 757 mmHg 80%
    01:00 +1°C° 0 mm 2 mps 757 mmHg 82%
    02:00 +1°C° 0 mm 2 mps 757 mmHg 84%
    03:00 +1°C° 0 mm 2 mps 758 mmHg 85%
    04:00 -1°C° 0 mm 2 mps 758 mmHg 86%
    05:00 -1°C° 0 mm 2 mps 758 mmHg 87%
    06:00 -1°C° 0 mm 2 mps 758 mmHg 89%
    07:00 -2°C° 0 mm 2 mps 758 mmHg 90%
    08:00 -1°C° 0 mm 2 mps 758 mmHg 85%
    09:00 +1°C° 0 mm 2 mps 758 mmHg 79%
    10:00 +1°C° 0 mm 3 mps 758 mmHg 74%
    11:00 +1°C° 0 mm 3 mps 758 mmHg 71%
    12:00 +2°C° 0 mm 3 mps 757 mmHg 68%
    13:00 +3°C° 0 mm 4 mps 757 mmHg 65%
    14:00 +3°C° 0 mm 4 mps 757 mmHg 67%
    15:00 +3°C° 0 mm 4 mps 756 mmHg 68%
    16:00 +3°C° 0 mm 4 mps 756 mmHg 69%
    17:00 +2°C° 0.2 mm 5 mps 755 mmHg 74%
    18:00 +2°C° 0.2 mm 5 mps 755 mmHg 79%
    19:00 +2°C° 0.2 mm 6 mps 754 mmHg 83%
    20:00 +2°C° 0.5 mm 6 mps 754 mmHg 84%
    21:00 +3°C° 0.5 mm 6 mps 754 mmHg 85%
    22:00 +3°C° 0.5 mm 6 mps 753 mmHg 86%
    23:00 +3°C° 0.1 mm 6 mps 753 mmHg 87%

    24 October, Thursday

    Time Temperature Precipitation Wind Pressure Humidity
    00:00 +5°C° 0.1 mm 5 mps 753 mmHg 87%
    01:00 +5°C° 0.1 mm 5 mps 752 mmHg 88%
    02:00 +5°C° 0 mm 5 mps 753 mmHg 90%
    03:00 +6°C° 0 mm 5 mps 753 mmHg 91%
    04:00 +6°C° 0 mm 5 mps 753 mmHg 92%
    05:00 +6°C° 0 mm 5 mps 753 mmHg 93%
    06:00 +6°C° 0 mm 5 mps 753 mmHg 93%
    07:00 +7°C° 0 mm 5 mps 753 mmHg 94%
    08:00 +7°C° 0 mm 5 mps 754 mmHg 91%
    09:00 +7°C° 0 mm 4 mps 754 mmHg 88%
    10:00 +8°C° 0 mm 4 mps 755 mmHg 86%
    11:00 +8°C° 0 mm 4 mps 755 mmHg 81%
    12:00 +10°C° 0 mm 4 mps 755 mmHg 76%
    13:00 +10°C° 0 mm 4 mps 756 mmHg 71%
    14:00 +10°C° 0 mm 4 mps 756 mmHg 74%
    15:00 +8°C° 0 mm 4 mps 756 mmHg 77%
    16:00 +9°C° 0 mm 3 mps 756 mmHg 79%
    17:00 +8°C° 0 mm 3 mps 757 mmHg 83%
    18:00 +7°C° 0 mm 3 mps 757 mmHg 87%
    19:00 +6°C° 0 mm 2 mps 758 mmHg 90%
    20:00 +6°C° 0 mm 2 mps 758 mmHg 91%
    21:00 +6°C° 0 mm 2 mps 758 mmHg 92%
    22:00 +7°C° 0 mm 1 mps 759 mmHg 93%
    23:00 +7°C° 0 mm 1 mps 759 mmHg 94%

    25 October, Friday

    Time Temperature Precipitation Wind Pressure Humidity
    00:00 +7°C° 0 mm 1 mps 759 mmHg 94%
    01:00 +7°C° 0 mm 1 mps 759 mmHg 94%
    02:00 +6°C° 0 mm 1 mps 759 mmHg 95%
    03:00 +5°C° 0 mm 2 mps 759 mmHg 95%
    04:00 +4°C° 0 mm 2 mps 759 mmHg 95%
    05:00 +4°C° 0 mm 2 mps 759 mmHg 95%
    06:00 +4°C° 0 mm 2 mps 759 mmHg 95%
    07:00 +4°C° 0 mm 2 mps 759 mmHg 95%
    08:00 +5°C° 0 mm 2 mps 759 mmHg 94%
    09:00 +6°C° 0 mm 2 mps 759 mmHg 92%
    10:00 +7°C° 0 mm 2 mps 759 mmHg 91%
    11:00 +7°C° 0 mm 3 mps 759 mmHg 91%
    12:00 +8°C° 0 mm 3 mps 759 mmHg 92%
    13:00 +9°C° 0 mm 3 mps 759 mmHg 92%
    14:00 +8°C° 0 mm 4 mps 758 mmHg 93%
    15:00 +8°C° 0 mm 4 mps 758 mmHg 94%
    16:00 +8°C° 0 mm 4 mps 758 mmHg 95%
    17:00 +8°C° 0 mm 4 mps 758 mmHg 95%
    18:00 +8°C° 0 mm 4 mps 758 mmHg 95%
    19:00 +8°C° 0 mm 4 mps 758 mmHg 95%
    20:00 +9°C° 0 mm 3 mps 759 mmHg 93%
    21:00 +9°C° 0 mm 3 mps 759 mmHg 92%
    22:00 +9°C° 0 mm 3 mps 759 mmHg 90%
    23:00 +8°C° 0 mm 3 mps 759 mmHg 90%
    Show more